Location: Campbell Hill
(37.9301°N, 89.5490°W)
Time: 11:01:05
(UTC+00:00)

Cosmos 2173 Rocket - Pass Details

Date: 07 November 2025
Orbit: 943 x 1000 km, 83.0° (Epoch: 07 December)

Event Time Altitude Azimuth Distance (km) Brightness Sun altitude
Rises 23:33:02 0° 191° (S) 3,686 7.4 -8.4°
Reaches altitude 10° 23:35:34 10° 193° (SSW) 2,734 6.7 -8.9°
Maximum altitude 23:41:50 72° 278° (W) 1,023 4.3 -10.1°
Drops below altitude 10° 23:48:02 10° 2° (N) 2,711 6.2 -11.3°
Sets 23:50:32 0° 5° (N) 3,653 6.8 -11.8°
